[Iaude] MPEC O49: 2019 WW35 [a=39.70,e=0.16,i=25.0,H=8.94]
    mpec at cfa.harvard.edu 
    mpec at cfa.harvard.edu
       
    Thu Jul 25 13:47:15 EDT 2024
    
    
  
M.P.E.C. 2024-O49                                 Issued 2024 July 25, 17:45 UT
     The Minor Planet Electronic Circulars contain information on unusual
         minor planets, routine data on comets and natural satellites,
         and occasional editorial announcements.  They are published
    on behalf of Division F of the International Astronomical Union by the
          Minor Planet Center, Smithsonian Astrophysical Observatory,
                          Cambridge, MA 02138, U.S.A.
			  
             Prepared using the Tamkin Foundation Computer Network
                              MPC at CFA.HARVARD.EDU
            URL https://www.minorplanetcenter.net/    ISSN 1523-6714
                                   2019 WW35                                    
Additional Observations:
     K19W35W @C2014 10 03.28697901 58 25.309-10 50 50.70               WEO049W84
     K19W35W @C2014 10 03.28802101 58 25.309-10 50 50.70               WEO049W84
     K19W35W @C2014 11 25.21415501 53 31.634-11 06 23.25               WEO049W84
     K19W35W @C2014 11 25.21519701 53 31.634-11 06 23.25               WEO049W84
     K19W35W @C2017 08 21.33560202 20 39.914-06 47 13.10               WEO049W84
     K19W35W @C2017 08 21.33782402 20 39.893-06 47 13.12               WEO049W84
     K19W35W @C2017 08 21.34018502 20 39.891-06 47 13.37               WEO049W84
     K19W35W @C2017 08 30.40974502 20 22.835-06 52 41.15               WEO049W84
     K19W35W @C2017 08 30.41196602 20 22.851-06 52 41.55               WEO049W84
     K19W35W @C2017 08 30.41432902 20 22.837-06 52 41.65               WEO049W84
     K19W35W @C2018 10 10.22541702 24 10.348-06 03 59.61               WEO049W84
     K19W35W @C2018 10 10.22714102 24 10.354-06 03 59.67               WEO049W84
     K19W35W @C2018 10 10.22886602 24 10.346-06 03 59.68               WEO049W84
     K19W35W @C2018 11 29.16182902 19 28.841-06 18 15.67               WEO049W84
     K19W35W @C2018 11 29.16361102 19 28.816-06 18 15.65               WEO049W84
     K19W35W @C2018 11 29.16533602 19 28.806-06 18 15.66               WEO049W84
     K19W35W @C2022 08 29.34829902 52 48.374-00 43 43.12               WEO049W84
     K19W35W @C2022 08 29.35049802 52 48.370-00 43 43.09               WEO049W84
     K19W35W @C2022 08 29.35288202 52 48.356-00 43 42.83               WEO049W84
     K19W35W @C2022 09 05.32535902 52 36.286-00 47 04.57               WEO049W84
     K19W35W @C2022 09 05.32758102 52 36.290-00 47 04.64               WEO049W84
     K19W35W @C2022 09 05.32995402 52 36.250-00 47 05.03               WEO049W84
Observer details:
W84 Cerro Tololo-DECam.  Observers C. Davis, D. Capozzi, A. Kim, T. Li, L.
    Clerkin, N. Kuropatkin, S. Bhargava, R. Wilkinson, D. Turner, K. Vivas, C.
    Martinez, R. Kron, S. Kent, L. Lidman, P. Aldoroty.  Measurers A. Manaka,
    M. Konohata, C. Sakurai, Y. Nanami, M. Morino, M. Inose, S. Ibe, A. Usami,
    M. Suzuya, Y. Endo, H. Itosaki.  4.0-m CTIO reflector + DECam.
First and last observations above in comparison with prediction:
Residuals in seconds of arc, reference and Delta-T
141003 W84 37.5- 20.9-    220905 W84  7.3-  8.9-    MPO840187    +406 days
Orbital elements:
2019 WW35                                                                       
Epoch 2024 Oct. 17.0 TT = JDT 2460600.5                 Alexandersen            
M 356.32856              (2000.0)            P               Q                  
n   0.00394037     Peri.  327.88850     +0.65153636     -0.63649260             
a  39.6988468      Node    77.67118     +0.75415395     +0.48449717             
e   0.1613345      Incl.   24.99328     +0.08217177     +0.60011637             
P 250              H    8.94          G   0.15           U   4                  
Residuals in seconds of arc
141003 W84  0.1-  0.1+    191101 T09  0.0   0.2-    191204 T09  0.1-  0.1-
141003 W84  0.0   0.1+    191101 T09  0.1-  0.1-    191204 T09  0.1-  0.1+
141125 W84  0.1-  0.0     191101 T09  0.1-  0.1+    191204 T09  0.1+  0.1-
141125 W84  0.0   0.0     191101 T09  0.1-  0.0     191204 T09  0.1+  0.0
170821 W84  0.2+  0.1+    191101 T09  0.0   0.0     191222 T09  0.0   0.1-
170821 W84  0.1-  0.2+    191127 T09  0.2+  0.2-    191222 T09  0.0   0.1-
170821 W84  0.1-  0.0     191127 T09  0.1-  0.1-    191222 T09  0.2+  0.1+
170830 W84  0.2-  0.2+    191127 T09  0.0   0.1-    200101 T09  0.2+  0.0
170830 W84  0.1+  0.1-    191127 T09  0.2-  0.1-    200101 T09  0.2+  0.2+
170830 W84  0.0   0.1-    191127 T09  0.0   0.1-    200101 T09  0.1-  0.1-
181010 W84  0.2-  0.1-    191127 T09  0.1-  0.1-    200101 T09  0.1-  0.0
181010 W84  0.0   0.1-    191129 T09  0.0   0.1+    200101 T09  0.1-  0.3-
181010 W84  0.1+  0.0     191129 T09  0.1+  0.1+    200101 T09  0.7-  0.1+
181129 W84  0.3+  0.1-    191129 T09  0.2+  0.1+    220829 W84  0.0   0.0
181129 W84  0.1+  0.1-    191204 T09  0.2+  0.0     220829 W84  0.0   0.1+
181129 W84  0.1+  0.1-    191204 T09  0.0   0.1+    220829 W84  0.2-  0.4+
191031 T09  0.0   0.2-    191204 T09  0.0   0.0     220905 W84  0.1+  0.2+
191031 T09  0.2+  0.1+    191204 T09  0.0   0.0     220905 W84  0.2+  0.2+
191031 T09  0.1+  0.1-    191204 T09  0.1+  0.1-    220905 W84  0.3-  0.2-
Ephemeris:
2019 WW35                a,e,i = 39.70, 0.16, 25                 q = 33.2941
Date    TT    R. A. (2000) Decl.     Delta      r    Elong.  Phase     V
2024 06 25    03 03 01.9 +01 52 48  33.9432 33.3175    51.3     1.4    24.4
...
2024 07 10    03 04 18.0 +01 54 33  33.7392 33.3169    64.7     1.6    24.4
...
2024 07 18    03 04 50.2 +01 54 30  33.6186 33.3165    71.9     1.7    24.4
...
2024 07 24    03 05 10.2 +01 54 02  33.5245 33.3163    77.3     1.7    24.4
2024 07 25    03 05 13.2 +01 53 55  33.5086 33.3162    78.2     1.7    24.4
2024 07 26    03 05 16.0 +01 53 48  33.4926 33.3162    79.1     1.7    24.4
...
2024 08 01    03 05 31.0 +01 52 52  33.3956 33.3159    84.6     1.7    24.4
...
2024 08 09    03 05 44.7 +01 51 06  33.2651 33.3156    92.0     1.7    24.4
...
2024 08 24    03 05 50.9 +01 46 23  33.0240 33.3150   105.9     1.7    24.4
M. P. C. Staff               (C) Copyright 2024 MPC           M.P.E.C. 2024-O49
    
    
More information about the Iaude
mailing list